Temperature
14 14 14 14 14 14 14 14 14 13 12 12 12 11 11 11 11 11 11 11 11 11 11 11 11 11 11 11 11 11 11 10 10 10 10 10 10 9
14 14 14 14 14 14 14 14 14 13 12 12 12 11 11 11 11 11 11 11 11 11 11 11 11 11 11 11 10 10 10 10 10 10 9 9 9 9
14 14 14 14 14 13 13 13 13 13 13 12 11 11 11 11 11 11 11 10 11 11 11 11 11 10 10 10 10 10 10 10 10 9 9 9 9 9
14 14 13 13 13 13 13 13 13 12 12 12 11 11 11 11 10 10 10 10 10 10 10 10 10 10 10 10 10 10 9 9 9 9 9 9 8 8
13 13 13 13 13 13 13 13 12 12 12 12 11 11 10 10 10 10 10 10 10 10 10 10 10 10 10 9 9 9 9 9 9 8 8 8 8 8
13 13 13 13 13 13 12 12 12 12 11 11 11 11 10 10 10 10 10 10 9 9 9 9 9 9 9 9 9 9 8 8 8 8 8 7 7 7
13 13 13 13 13 12 12 12 12 12 11 11 11 10 10 10 10 9 9 9 9 9 9 9 8 8 8 8 8 8 8 8 7 7 7 7 7 7
13 13 13 13 13 12 12 12 12 11 11 11 10 10 10 10 10 9 9 9 9 9 8 8 8 8 8 8 8 7 7 7 7 7 7 6 6 6
13 12 12 12 12 12 12 12 11 11 11 11 11 10 10 10 10 9 9 9 8 8 8 8 8 8 7 7 7 7 7 6 6 6 6 6 6 6
12 12 12 12 12 12 12 11 11 11 11 10 10 10 10 10 9 9 9 8 8 8 7 7 7 7 7 7 7 6 6 6 6 6 6 5 5 5
12 12 12 12 12 12 11 11 11 11 10 10 10 10 9 9 9 9 8 8 8 7 7 7 7 7 7 7 6 6 6 6 5 5 5 5 5 5
12 12 12 12 12 11 11 11 11 11 10 10 10 9 9 9 9 8 8 7 7 7 7 6 6 6 6 6 6 6 5 5 5 5 5 5 4 4
12 12 12 11 11 11 11 11 10 10 10 10 9 9 9 9 8 8 8 7 7 6 6 6 6 6 5 5 6 5 5 5 5 4 4 4 4 4
12 12 11 11 11 11 11 10 10 10 10 9 9 9 9 8 8 8 7 7 7 6 6 6 5 5 5 5 5 5 5 4 4 4 4 3 3 3
11 11 11 11 11 10 10 10 10 9 9 9 9 8 8 8 7 7 7 7 6 6 6 5 5 5 4 4 4 4 4 4 4 3 3 3 3 3
11 11 10 10 10 10 10 10 9 9 9 8 8 8 8 7 7 7 6 6 6 6 5 5 4 4 4 4 4 4 3 3 3 3 3 3 2 2
11 10 10 10 10 10 9 9 9 9 9 8 8 7 7 7 7 6 6 6 5 5 5 5 4 4 4 4 3 3 3 3 3 2 2 2 2 2
10 10 10 10 9 9 9 9 9 8 8 8 7 7 7 6 6 6 5 5 5 4 4 4 4 3 3 3 3 3 2 2 2 2 2 1 1 1
10 10 10 9 9 9 9 9 8 8 8 7 7 7 6 6 5 5 5 5 4 4 4 3 3 3 2 2 3 3 2 2 2 1 1 1 1 1
10 10 9 9 9 9 8 8 8 8 7 7 7 6 6 6 5 5 4 4 4 3 3 3 3 2 2 2 2 2 2 1 1 1 1 1 0 1
9 9 9 9 9 8 8 8 8 7 7 7 6 6 6 5 5 4 4 4 3 3 3 3 3 2 2 2 1 2 2 1 1 0 0 -0 -0 -0
9 9 9 9 8 8 8 7 7 7 7 6 6 6 5 5 4 4 4 3 3 3 2 2 2 2 2 1 1 1 1 1 1 0 -0 -0 -1 -1
9 9 9 8 8 8 7 7 7 6 6 6 6 5 5 4 4 4 3 3 3 2 2 2 2 1 1 1 1 0 0 0 0 -0 0 -0 -1 -1
Wind_Speed
3 4 3 2 3 3 3 2 3 2 1 1 2 3 6 7 7 7 7 7 8 9 9 10 10 11 11 12 12 13 13 13 12 13 13 13 13 13
3 4 3 2 3 3 2 2 3 3 2 1 1 2 5 5 6 6 6 6 6 6 7 8 8 9 9 10 10 11 11 12 12 12 12 12 12 13
3 4 3 3 2 2 2 3 3 3 4 1 2 2 4 4 4 4 4 5 4 4 5 6 6 7 7 8 8 9 9 10 11 11 12 12 13 13
3 3 3 3 3 2 2 2 2 3 4 2 1 2 2 2 2 1 2 2 2 2 2 2 3 4 4 5 6 6 7 8 9 10 11 12 12 13
3 3 3 3 2 1 2 2 2 3 3 2 1 1 1 1 2 2 2 1 1 1 2 1 1 2 2 3 4 5 6 7 8 9 10 11 12 12
3 3 3 3 2 1 2 2 2 2 2 2 1 1 1 1 2 1 1 2 1 1 1 1 1 1 2 3 3 5 5 6 7 9 10 11 11 12
3 4 4 6 6 4 3 2 2 1 2 2 1 1 0 1 1 1 0 1 2 1 1 1 1 1 2 3 3 4 5 6 7 9 10 11 11 12
4 4 4 4 5 6 6 5 4 2 2 1 1 1 1 0 0 1 1 1 2 2 1 2 1 1 2 2 2 4 5 6 7 9 11 11 12 13
3 3 2 3 4 2 3 3 3 2 2 2 1 1 0 0 0 1 1 1 2 2 1 3 2 2 2 3 5 5 5 7 8 10 11 11 12 13
2 2 3 3 2 2 2 2 1 1 1 2 2 1 1 1 0 1 1 1 1 2 2 2 3 3 3 4 6 6 6 8 9 10 11 12 13 14
2 2 3 3 3 3 2 2 1 0 2 3 3 1 1 2 3 2 2 1 2 3 1 1 3 3 3 3 5 6 8 9 9 10 11 12 13 13
2 2 3 3 3 3 2 2 2 1 1 0 1 1 1 1 1 1 1 1 1 2 2 1 3 3 3 3 2 5 7 9 10 11 12 12 12 10
2 2 2 3 3 3 3 1 2 1 0 0 0 0 0 0 0 0 0 1 1 2 2 1 2 2 2 4 3 4 4 6 8 9 11 12 12 10
2 2 2 4 4 4 2 1 1 1 0 0 0 1 1 1 1 1 1 1 2 3 3 1 1 2 3 4 5 4 4 7 6 5 7 10 12 13
2 4 4 5 4 3 3 3 1 0 1 1 2 2 2 2 1 1 2 3 4 5 4 4 2 2 2 4 5 4 5 5 4 4 4 5 6 8
2 3 4 4 3 3 3 2 2 2 2 2 2 2 1 1 1 1 1 2 2 3 5 6 5 3 3 5 5 5 5 4 4 4 4 5 8 9
3 3 2 2 2 2 2 3 3 2 3 2 2 2 2 2 2 2 2 2 2 3 4 3 5 5 5 4 5 5 5 5 5 5 5 6 5 7
5 3 3 3 4 4 4 3 3 3 3 3 2 2 2 2 2 2 1 2 3 3 3 3 2 3 4 4 5 5 4 5 5 5 5 6 7 6
4 4 4 4 4 3 3 3 3 3 3 3 2 2 2 2 2 2 2 2 3 3 3 3 2 2 5 7 5 4 4 5 5 5 5 5 7 7
4 4 4 4 3 3 3 3 2 2 2 2 2 2 2 2 2 2 3 3 3 3 3 3 3 3 5 6 6 6 9 6 5 6 6 5 6 10
5 4 4 3 3 3 2 2 3 2 2 2 3 3 3 3 3 3 3 4 3 3 4 5 5 5 3 3 4 5 5 10 9 6 6 6 7 6
4 4 4 4 3 3 3 3 3 3 3 3 3 3 3 3 3 4 3 3 4 4 5 5 4 3 2 4 7 7 7 7 10 12 11 11 6 6
4 4 3 3 3 3 3 3 3 3 3 3 3 3 3 3 3 3 3 3 3 4 4 4 4 3 4 5 6 7 8 8 6 6 7 12 15 17
Wind_Direction
66 74 75 60 50 51 70 91 116 109 76 102 81 106 102 98 87 79 86 83 73 65 57 52 49 46 43 42 40 38 36 34 32 30 28 25 22 20
65 68 62 58 54 48 47 43 71 117 107 90 99 117 104 99 96 91 86 97 83 71 58 49 46 45 44 42 40 37 34 30 27 24 21 18 16 13
94 93 79 66 66 51 41 52 59 89 110 93 83 94 98 94 91 101 96 105 90 83 64 50 42 39 40 40 37 34 29 25 21 16 13 11 8 5
112 103 100 83 70 54 53 61 68 89 112 122 103 83 94 115 109 90 85 91 87 101 96 68 44 35 34 33 32 28 23 18 13 9 6 3 360 357
103 100 95 92 93 69 69 68 68 83 96 116 116 89 79 83 68 34 42 44 28 106 137 142 38 24 18 15 24 18 12 8 4 359 356 354 352 351
93 92 88 88 84 91 80 70 77 85 94 106 108 77 82 71 80 18 347 329 323 338 9 215 287 322 347 352 354 353 353 352 350 347 346 345 344 343
111 101 91 87 79 77 82 70 73 83 105 111 113 75 50 47 326 253 290 285 299 342 330 265 218 246 273 306 318 332 341 343 342 340 337 335 335 335
128 130 131 115 104 95 93 88 87 100 117 118 140 174 228 214 299 356 327 345 313 316 330 294 226 239 239 243 286 305 312 321 325 327 327 327 328 328
125 133 130 127 135 148 127 108 77 70 122 143 165 220 194 235 32 325 306 295 262 282 3 300 298 288 286 258 270 278 292 305 309 315 319 321 323 323
125 132 131 123 109 108 115 112 123 163 171 146 157 190 139 49 154 228 248 306 307 330 21 294 311 303 308 277 265 266 285 295 298 306 313 316 317 319
101 88 107 112 95 90 124 139 120 146 115 124 129 114 71 40 45 48 18 12 315 306 324 305 306 311 291 269 271 268 279 287 296 302 307 309 311 315
125 103 95 120 113 105 142 157 166 211 149 48 19 336 22 19 10 114 184 267 294 301 319 348 318 338 314 292 299 296 288 289 295 300 302 305 306 308
156 157 147 156 154 140 127 134 162 133 156 174 192 237 172 129 332 326 148 180 225 262 295 355 316 323 294 302 306 300 299 305 301 301 299 300 304 304
168 154 149 157 157 150 146 135 96 56 24 294 255 258 255 259 260 282 301 292 250 252 275 301 278 286 297 299 297 305 319 313 303 296 304 312 309 305
167 155 158 164 162 171 190 198 187 182 208 228 246 249 241 245 268 318 321 310 293 282 281 284 259 268 271 279 289 302 312 303 297 311 313 311 306 307
182 175 181 186 188 207 206 213 201 197 204 230 240 252 275 282 264 249 273 284 285 285 281 283 272 258 274 276 281 291 296 295 310 308 303 299 307 306
174 170 184 186 196 212 211 209 203 202 225 235 231 248 260 262 266 271 264 277 278 287 297 294 291 284 268 269 281 282 290 297 298 306 311 303 295 300
167 180 201 208 211 209 208 212 209 213 219 218 221 232 241 249 265 274 263 256 270 278 285 292 308 325 324 301 258 271 287 291 297 300 302 303 300 300
175 203 211 213 214 211 209 209 213 215 210 206 212 228 243 252 261 273 270 266 269 275 283 288 295 302 303 304 293 282 287 293 297 294 289 290 291 294
203 208 213 216 216 212 211 213 210 202 203 210 214 225 232 239 250 260 260 263 272 279 289 291 277 262 264 277 285 296 290 281 286 289 289 289 285 288
208 214 215 215 215 212 209 209 208 203 209 216 221 225 229 232 246 253 257 273 274 277 281 279 275 276 270 289 295 291 288 292 290 289 294 302 303 300
209 210 212 213 215 214 210 206 211 213 217 222 225 231 234 234 241 246 252 262 265 267 276 282 285 292 287 283 285 290 296 301 303 300 295 292 296 298
213 212 210 208 211 210 209 213 216 218 218 223 230 235 235 238 240 243 252 256 266 274 282 291 297 292 283 279 283 289 295 301 302 302 298 305 303 299
Height
1563 1564 1564 1565 1565 1566 1567 1567 1568 1568 1569 1569 1568 1568 1567 1565 1564 1563 1562 1561 1560 1559 1557 1556 1554 1553 1551 1550 1548 1547 1546 1544 1543 1541 1540 1539 1538 1537
1563 1564 1564 1565 1565 1566 1566 1567 1567 1567 1568 1569 1568 1568 1567 1566 1565 1563 1562 1561 1560 1559 1558 1556 1555 1553 1552 1550 1549 1547 1546 1544 1543 1541 1540 1539 1537 1536
1563 1564 1564 1564 1565 1565 1566 1566 1566 1567 1567 1568 1568 1567 1566 1566 1565 1564 1562 1561 1560 1559 1558 1556 1555 1553 1552 1550 1549 1547 1545 1544 1542 1541 1539 1537 1536 1534
1563 1563 1563 1564 1564 1565 1565 1565 1566 1566 1567 1567 1567 1567 1566 1565 1564 1563 1562 1561 1560 1559 1558 1556 1555 1553 1552 1550 1548 1547 1545 1543 1541 1540 1538 1536 1534 1532
1562 1562 1563 1563 1563 1564 1564 1565 1565 1565 1565 1566 1566 1566 1565 1565 1564 1563 1562 1561 1559 1558 1557 1556 1554 1553 1551 1550 1548 1546 1544 1542 1540 1538 1536 1534 1532 1530
1562 1562 1562 1562 1563 1563 1563 1564 1564 1564 1564 1564 1564 1565 1564 1564 1563 1562 1561 1560 1558 1557 1556 1555 1553 1552 1550 1549 1547 1545 1543 1541 1539 1537 1535 1533 1530 1528
1560 1561 1561 1562 1562 1562 1562 1562 1562 1562 1562 1562 1563 1563 1562 1562 1561 1560 1559 1558 1557 1556 1555 1553 1552 1550 1549 1547 1546 1544 1542 1540 1538 1536 1533 1531 1528 1526
1559 1559 1560 1560 1561 1561 1561 1561 1561 1561 1561 1561 1561 1561 1561 1560 1560 1559 1558 1556 1555 1555 1553 1552 1550 1548 1547 1545 1544 1542 1540 1538 1536 1533 1531 1529 1526 1524
1558 1558 1559 1559 1559 1559 1559 1560 1560 1560 1560 1560 1559 1559 1559 1558 1558 1557 1556 1555 1554 1553 1551 1549 1548 1546 1545 1543 1541 1540 1538 1536 1533 1531 1529 1526 1523 1521
1556 1557 1557 1557 1557 1557 1557 1558 1558 1558 1558 1558 1558 1558 1558 1557 1556 1555 1554 1553 1552 1551 1549 1547 1545 1544 1542 1540 1539 1537 1535 1533 1530 1528 1525 1523 1520 1518
1555 1555 1555 1555 1556 1556 1556 1556 1556 1556 1556 1556 1556 1556 1556 1555 1554 1553 1551 1550 1548 1547 1547 1545 1542 1540 1539 1537 1536 1534 1532 1530 1528 1525 1522 1520 1517 1514
1552 1553 1553 1553 1554 1554 1554 1554 1553 1554 1554 1554 1554 1553 1553 1552 1551 1550 1549 1548 1546 1545 1544 1542 1540 1538 1535 1533 1532 1530 1528 1526 1524 1522 1519 1516 1513 1510
1550 1550 1551 1551 1551 1552 1552 1552 1552 1552 1551 1551 1551 1551 1550 1549 1549 1548 1547 1545 1544 1542 1542 1540 1537 1535 1534 1530 1528 1527 1525 1522 1520 1517 1515 1512 1510 1507
1547 1548 1548 1549 1549 1550 1550 1550 1550 1549 1549 1549 1548 1547 1547 1546 1546 1545 1544 1543 1541 1540 1539 1537 1535 1532 1530 1527 1524 1522 1521 1519 1516 1513 1511 1508 1506 1503
1545 1545 1546 1546 1546 1547 1547 1547 1547 1546 1546 1545 1545 1544 1544 1543 1542 1541 1540 1539 1538 1536 1535 1533 1531 1529 1527 1524 1521 1519 1516 1514 1512 1509 1506 1504 1501 1498
1542 1542 1543 1543 1544 1544 1544 1544 1544 1543 1543 1542 1542 1541 1541 1540 1539 1537 1536 1535 1533 1532 1531 1529 1527 1525 1522 1520 1518 1515 1513 1510 1507 1505 1502 1499 1496 1493
1539 1539 1540 1540 1540 1540 1540 1540 1540 1539 1539 1538 1538 1537 1537 1536 1535 1534 1532 1531 1529 1527 1526 1525 1523 1521 1519 1517 1513 1511 1508 1506 1503 1500 1497 1493 1491 1489
1535 1535 1535 1536 1536 1536 1536 1536 1536 1535 1535 1535 1534 1533 1532 1531 1531 1530 1528 1527 1525 1524 1522 1520 1518 1516 1514 1511 1511 1507 1504 1501 1499 1496 1492 1488 1485 1483
1530 1530 1531 1532 1532 1532 1532 1532 1531 1531 1531 1531 1530 1529 1528 1528 1527 1525 1524 1523 1521 1520 1518 1517 1515 1512 1509 1506 1504 1504 1501 1497 1494 1490 1487 1484 1480 1477
1525 1526 1526 1527 1527 1528 1528 1528 1527 1527 1527 1526 1526 1525 1524 1523 1522 1521 1520 1519 1517 1516 1514 1513 1511 1509 1506 1504 1500 1498 1497 1493 1489 1485 1482 1479 1476 1473
1521 1521 1522 1522 1523 1523 1523 1523 1523 1523 1522 1522 1521 1521 1520 1519 1518 1517 1516 1515 1513 1512 1510 1508 1506 1505 1502 1499 1496 1492 1491 1489 1486 1483 1478 1474 1469 1466
1516 1517 1517 1517 1518 1518 1518 1519 1518 1518 1518 1517 1517 1516 1515 1514 1513 1512 1511 1510 1509 1507 1505 1504 1502 1500 1497 1495 1491 1488 1485 1483 1481 1478 1475 1472 1467 1462
1512 1512 1513 1513 1513 1513 1513 1513 1513 1513 1512 1512 1512 1511 1510 1509 1509 1508 1507 1506 1504 1503 1501 1499 1497 1495 1492 1490 1487 1484 1480 1477 1474 1471 1469 1467 1464 1460